Location: Honolulu
(21.3069°N, 157.8583°W)
Time: 01:25:22
(UTC-10:00)

Tiros 1 despin weight - Visible Passes

Search period start: 11 May 2026 00:00
Search period end: 21 May 2026 00:00
Orbit: 555 x 591 km, 48.2° (Epoch: 10 May)

Date Brightness Start Highest point End Pass type
(mag) Time Alt. Az. Time Alt. Az. Time Alt. Az.
11 May ? 05:03:04 13° SW 05:06:44 69° SE 05:10:56 10° NE visible
12 May ? 03:29:06 10° ESE 03:29:06 10° ESE 03:29:07 10° ESE visible
12 May ? 05:05:14 16° SW 05:08:32 63° NW 05:12:43 10° NE visible
13 May ? 03:31:11 18° ESE 03:31:11 18° ESE 03:33:09 10° E visible
13 May ? 05:07:19 15° WSW 05:10:23 35° NW 05:14:16 10° NNE visible
14 May ? 03:33:10 28° E 03:33:10 28° E 03:35:40 10° ENE visible
14 May ? 05:09:18 11° W 05:12:18 21° NW 05:15:32 10° N visible
15 May ? 03:35:03 37° ENE 03:35:03 37° ENE 03:37:44 10° NE visible
15 May ? 05:12:16 10° WNW 05:14:18 13° NW 05:16:18 10° N visible
16 May ? 03:36:52 36° NNE 03:36:52 36° NNE 03:39:31 10° NE visible
17 May ? 03:38:35 27° N 03:38:35 27° N 03:41:03 10° NNE visible
18 May ? 03:40:14 19° NNW 03:40:14 19° NNW 03:42:18 10° N visible
19 May ? 03:41:49 13° NNW 03:41:49 13° NNW 03:43:05 10° N visible
